SCP
0 0 -0 -0 -0 -0 0 0 0 0 0 0 0 0 0 0 0 0 0 0 0 0 0 -0 0 0 0 0 0 0 0 0 0 0 0 0 0 0 0 0 0 0 0 0
0 0 0 -0 -0 0 0 0 0 0 0 0 0 0 0 0 0 0 0 -0 0 0 0 0 0 0 0 -0 0 0 0 0 0 0 0 0 0 0 0 0 0 0 0 0
0 0 0 0 0 0 0 0 0 0 0 0 0 0 0 0 0 0 0 0 0 0 0 0 0 0 0 -0 0 -0 -0 0 0 0 0 0 0 0 0 0 0 0 0 0
0 0 0 0 0 0 0 0 0 0 0 0 0 0 0 0 0 0 0 0 -0 -0 0 0 0 0 0 -0 -0 -0 -0 0 0 0 0 0 0 0 0 0 0 0 0 0
0 0 0 0 0 0 0 0 0 0 0 0 0 0 0 0 0 0 0 0 0 0 0 0 0 0 0 0 0 -0 0 0 0 0 0 0 0 0 0 0 0 0 0 0
0 0 0 0 0 0 0 0 0 0 0 0 0 0 0 0 0 0 0 0 0 0 0 -0 -0 0 0 0 0 -0 -0 0 0 0 0 0 0 0 0 0 0 0 0 0
0 0 0 0 0 0 0 0 0 0 0 0 0 0 0 0 0 0 0 0 0 0 0 0 -0 0 -0 0 0 0 -0 0 0 0 1 0 0 0 0 0 0 0 0 0
0 0 0 0 0 0 0 0 0 0 0 0 0 0 0 0 0 0 0 0 0 0 0 0 -0 -0 -0 0 0 1 0 0 0 0 0 0 0 0 0 0 0 0 0 0
0 0 0 0 0 0 0 0 0 0 0 0 0 0 0 0 0 0 0 0 0 0 0 0 0 0 0 0 -0 1 0 0 0 0 0 0 0 0 0 0 0 0 0 0
0 0 0 0 0 0 0 0 0 0 0 0 0 0 0 0 0 0 0 -0 0 0 0 0 0 0 0 0 0 0 0 0 0 0 0 0 0 0 1 0 0 0 0 0
0 0 0 0 0 0 0 0 0 0 0 0 0 0 0 0 0 0 0 -0 0 0 0 0 0 0 0 0 0 -0 -0 -0 0 0 0 0 0 0 0 0 0 0 0 0
0 0 0 0 0 0 0 0 0 0 0 0 -0 0 -0 0 0 0 0 0 0 0 0 0 0 0 0 0 -0 -0 -0 -0 0 0 0 0 -0 0 0 0 0 1 0 0
0 0 0 0 0 0 0 0 0 0 0 0 0 0 0 0 0 0 0 0 0 0 0 0 0 0 0 0 0 0 0 -0 -0 -0 0 0 0 0 0 0 1 1 0 0
0 0 0 0 0 0 0 0 0 0 0 0 0 0 0 0 0 0 0 0 0 0 0 0 0 0 0 0 0 0 -0 0 0 0 0 -0 0 0 0 0 0 0 0 0
0 0 0 0 0 0 0 0 0 0 0 0 0 0 0 0 0 0 0 0 0 0 0 0 0 0 0 0 0 0 0 0 0 0 -0 -0 0 0 0 0 0 0 0 0
0 0 0 0 0 0 0 0 0 0 -0 0 0 0 0 0 0 0 0 0 0 0 0 0 0 0 0 0 0 0 0 0 0 0 0 -0 0 0 0 0 0 0 0 0
0 0 0 0 0 0 0 0 0 0 0 0 0 0 0 0 0 0 0 -0 0 0 0 0 0 0 0 0 0 0 -0 0 0 0 0 0 -0 0 0 0 0 0 0 0
0 0 0 0 0 0 0 0 -0 0 0 0 0 0 0 0 0 0 0 0 0 0 0 0 0 0 0 0 -0 0 0 0 0 0 0 0 0 0 0 0 0 0 0 0
0 0 0 0 0 0 0 0 0 0 0 0 0 0 0 0 0 0 -0 -0 -0 0 0 0 0 0 0 0 0 0 0 0 0 0 0 0 0 0 0 0 -0 -0 0 0
0 0 0 0 0 0 0 0 0 0 0 0 0 0 0 0 -0 0 0 0 -0 0 0 0 0 0 0 0 -0 0 0 0 0 0 0 -0 0 0 0 -0 0 0 0 0
0 0 0 0 0 0 0 0 0 0 0 0 0 0 0 0 -0 -0 -0 0 -0 0 0 0 0 0 0 0 -0 -0 0 0 0 0 0 -0 0 -0 -0 -0 -0 0 0 0
0 0 0 0 0 -0 0 -0 -0 0 0 0 0 -0 -0 0 0 -0 -0 0 -0 0 0 0 0 0 0 0 0 -0 0 0 0 0 0 -0 0 -0 -0 0 -0 0 0 0
-0 0 -0 -0 -0 -0 0 -0 -0 -0 -0 -0 -0 -0 -0 0 0 0 0 0 0 -0 -0 0 0 0 0 0 0 0 0 0 0 0 0 0 0 0 0 0 0 0 0 0
-0 0 -0 0 -0 0 0 -0 -0 -0 0 0 0 -0 -0 -0 0 0 0 -0 0 -0 -0 0 0 0 0 0 0 0 0 0 0 0 0 0 0 0 0 0 0 0 0 0
0 0 0 -0 -0 -0 -0 0 0 0 -0 -0 0 0 -0 0 0 0 0 0 -0 -0 -0 -0 0 0 0 0 0 0 0 0 0 0 0 0 0 0 0 -0 0 0 0 0
-0 -0 0 0 0 0 -0 -0 -0 -0 -0 -0 -0 0 0 0 0 0 0 0 0 -0 -0 -0 -0 0 0 0 0 0 0 0 0 0 0 0 0 0 0 -0 0 0 0 -0
-0 0 0 0 -0 -0 0 -0 -0 -0 0 0 0 0 -0 -0 0 0 0 -0 -0 -0 -0 0 -0 -0 0 0 0 0 0 0 0 0 0 0 0 0 0 0 0 0 0 0
Wind_Speed_500mb
49 49 51 54 63 62 49 17 7 10 6 6 11 9 14 33 34 54 34 32 25 25 20 22 24 30 21 53 30 31 22 15 13 22 25 14 13 12 15 11 8 3 11 11
47 47 47 47 49 58 63 39 15 16 25 5 8 21 29 39 25 21 19 16 40 21 22 16 17 29 51 33 22 38 14 10 8 4 12 16 12 12 3 12 8 7 10 8
43 45 45 43 39 38 41 17 8 15 12 20 14 16 12 25 40 17 11 20 56 29 23 26 21 29 38 24 37 53 40 13 20 21 16 13 8 9 2 10 9 12 12 11
40 42 43 43 36 23 26 13 8 22 9 18 31 25 20 28 30 19 29 12 23 19 13 28 20 30 28 28 26 34 8 10 13 14 23 13 16 14 12 6 5 10 10 19
36 38 40 42 40 18 24 14 16 22 34 34 27 18 15 27 26 21 17 7 21 17 12 16 34 13 9 12 8 6 13 12 12 13 15 18 16 20 15 14 11 6 16 11
33 35 35 35 36 31 14 23 33 14 23 18 15 15 28 34 32 20 42 26 6 16 27 25 50 34 30 30 39 7 4 7 13 10 11 10 28 24 24 16 16 17 10 17
30 30 30 27 26 24 21 16 25 19 11 18 21 36 40 33 37 24 33 42 15 33 50 32 28 53 44 54 38 15 6 7 4 9 11 31 4 18 23 21 16 15 14 15
28 27 27 24 18 16 8 9 29 12 12 28 32 43 38 40 42 36 41 37 40 50 35 10 12 9 15 22 24 10 8 9 4 4 11 23 12 8 10 1 26 14 19 27
27 26 24 24 20 18 15 7 10 14 15 14 46 42 36 18 16 20 34 67 53 36 6 6 10 7 13 11 3 18 17 10 9 8 2 9 15 7 24 16 23 16 14 17
26 25 23 22 21 18 15 5 12 14 27 42 31 27 28 35 25 16 34 43 33 21 4 8 10 15 17 11 23 6 6 5 13 8 9 13 41 11 19 14 15 47 73 61
23 23 24 22 21 20 19 11 8 17 22 52 51 28 41 46 31 9 39 27 21 9 9 7 7 7 6 6 4 4 2 2 8 7 12 24 44 43 17 17 6 54 65 74
23 25 25 22 21 21 21 18 12 24 32 46 55 59 56 52 59 51 25 27 35 12 7 8 7 8 8 11 5 7 6 7 5 9 8 28 38 45 78 36 36 49 75 73
26 26 26 24 23 22 22 28 23 18 32 54 33 37 34 38 28 58 34 31 34 33 16 12 7 9 5 5 8 9 6 2 8 2 13 24 44 85 51 17 56 79 81 81
28 29 27 26 25 24 25 31 22 23 20 15 25 29 51 41 40 29 41 59 39 44 34 18 7 6 14 4 9 10 7 7 11 11 14 22 29 52 31 46 46 79 77 74
31 33 31 29 27 25 28 35 36 25 29 14 45 81 49 28 37 45 47 48 50 39 25 13 13 20 15 18 13 10 19 14 8 8 7 17 14 13 13 36 16 67 73 69
35 34 30 28 26 25 23 12 8 11 44 15 7 29 75 28 36 49 41 54 58 55 39 22 32 50 33 9 8 23 18 7 32 17 22 27 15 13 10 43 6 64 66 74
27 27 26 25 23 22 23 12 4 2 7 9 12 13 19 41 32 34 50 54 46 46 51 46 43 47 36 13 26 43 65 39 30 24 16 12 16 15 20 27 4 71 70 66
26 24 23 22 24 33 47 43 36 25 22 14 7 10 32 26 29 19 16 27 50 56 45 32 33 31 32 14 21 39 71 63 40 42 18 36 25 22 27 29 18 57 64 64
21 21 19 26 29 20 37 14 27 25 32 10 11 11 15 13 10 12 17 9 6 27 20 29 20 18 15 15 34 49 63 39 35 35 16 10 24 63 69 55 41 37 71 67
16 15 9 9 13 17 14 7 9 17 17 20 15 30 24 40 46 8 7 8 5 8 18 33 26 23 47 65 68 49 43 43 46 31 30 13 39 45 56 80 46 70 66 65
14 9 10 16 14 13 10 9 11 14 10 18 22 42 31 41 21 14 13 5 6 7 7 16 19 22 34 74 70 76 56 45 41 49 40 22 25 27 68 65 53 71 67 67
11 10 11 10 8 11 9 7 8 11 9 7 9 18 32 32 36 20 15 10 9 10 9 10 19 18 57 63 73 75 64 45 46 52 44 13 32 56 70 69 68 76 69 63
11 8 6 6 10 9 9 10 7 4 10 11 12 5 13 11 10 13 7 9 8 10 3 7 7 34 40 17 65 67 44 45 33 22 25 13 6 39 21 103 87 83 78 69
8 9 9 8 9 9 9 10 9 15 16 28 19 11 8 9 6 7 9 9 5 5 4 5 6 34 40 46 28 58 59 49 46 48 45 45 32 20 27 36 50 61 78 67
9 11 7 11 11 19 16 28 25 26 26 23 13 12 6 6 6 7 8 8 9 7 5 1 30 35 36 57 18 58 59 62 52 38 22 16 36 55 63 43 29 37 45 57
8 11 12 26 13 14 16 29 33 33 27 5 6 3 3 7 6 8 10 7 3 9 14 26 17 31 27 42 30 13 45 44 32 18 22 20 53 57 62 75 80 67 62 60
9 15 29 33 36 24 19 50 39 22 16 2 6 5 7 6 7 8 5 7 14 38 40 35 29 32 28 25 28 12 28 25 16 15 30 12 41 53 80 82 70 71 66 55
Wind_Direction_500mb
349 353 354 355 349 350 1 11 297 181 329 253 243 232 257 304 319 329 316 297 287 298 292 295 301 309 293 304 305 258 199 173 217 243 276 272 197 222 162 124 251 59 130 240
346 350 353 356 356 349 349 336 282 329 208 277 331 357 345 334 352 323 1 320 319 304 295 308 284 289 292 303 322 327 210 212 209 270 300 303 253 249 158 112 83 164 129 252
345 348 352 353 357 345 343 340 312 352 344 7 19 358 313 333 325 315 18 334 302 356 321 294 291 287 287 338 323 339 290 182 177 206 197 217 233 295 18 141 126 180 191 173
342 346 350 352 355 359 357 8 358 11 331 335 323 306 286 297 302 332 10 340 26 28 312 327 348 357 332 350 329 332 57 247 181 188 193 214 212 258 262 121 233 126 275 192
338 343 348 349 354 8 46 32 356 339 302 308 315 298 316 330 356 10 338 57 346 356 354 322 310 338 316 303 312 2 4 312 295 210 205 221 224 188 235 255 130 189 101 36
334 338 344 350 356 8 42 19 351 313 291 296 294 334 338 328 347 7 353 336 277 306 295 205 280 255 265 261 280 270 45 51 13 296 236 250 259 197 202 226 225 164 177 183
330 333 339 351 355 5 357 12 349 311 296 321 326 333 340 333 328 315 311 303 327 330 328 265 273 265 276 294 277 181 242 105 101 287 297 233 163 182 197 216 236 188 110 149
326 329 333 341 343 336 330 17 341 326 307 315 314 344 325 328 338 334 323 349 352 333 322 304 292 272 268 241 241 187 135 102 56 76 312 294 264 183 149 12 277 197 167 140
317 321 326 329 333 329 316 288 348 321 301 219 347 332 323 336 328 316 325 328 340 331 286 262 235 261 304 276 9 32 42 73 126 112 255 262 285 175 150 214 213 193 266 145
310 312 315 317 321 326 324 35 353 299 290 280 306 316 308 303 312 300 299 349 320 330 259 272 255 264 298 284 299 208 95 314 210 150 182 267 271 206 147 143 234 157 173 160
307 307 309 310 310 313 315 265 328 302 293 291 285 281 308 307 307 292 316 338 6 311 354 339 321 320 290 322 88 135 59 156 269 162 177 239 6 331 181 189 128 126 136 142
308 309 309 306 300 299 304 297 273 292 283 271 283 282 278 274 274 263 268 281 316 292 8 4 330 324 301 329 299 200 201 170 231 243 292 324 312 298 306 199 138 133 139 145
292 291 293 299 299 290 282 290 303 321 297 305 277 283 305 299 319 264 232 253 255 274 1 299 267 266 357 322 289 24 293 190 252 123 212 213 277 307 334 330 176 160 162 151
289 296 294 293 293 293 285 279 279 273 283 285 286 304 291 272 275 252 256 250 264 269 282 268 282 299 317 267 282 282 181 189 247 256 295 312 286 281 354 338 146 140 144 146
283 291 291 289 281 284 287 287 277 248 246 288 297 300 304 279 261 256 246 243 255 249 250 241 250 265 277 272 263 254 201 202 217 256 236 221 264 289 280 317 225 143 138 141
283 285 285 287 281 275 298 321 99 277 242 264 289 284 296 299 284 252 264 240 246 238 234 248 248 253 265 263 241 257 280 167 277 256 253 236 257 252 236 299 245 148 149 154
287 285 276 278 274 260 233 240 234 196 257 272 281 279 284 310 309 255 252 247 240 228 233 237 249 268 276 269 261 265 276 278 281 209 193 193 244 279 226 301 131 146 152 151
280 283 278 273 269 267 264 263 260 253 265 251 262 267 277 289 305 281 317 280 235 227 234 234 224 241 249 247 239 251 267 278 256 234 227 224 266 180 186 182 139 144 143 151
275 275 270 279 267 255 272 275 246 236 228 270 252 257 279 304 28 348 336 310 297 255 233 223 221 222 225 220 239 257 261 267 273 283 222 240 221 203 188 171 184 174 153 154
276 267 247 253 243 262 254 245 202 205 215 230 256 255 266 282 299 308 0 307 255 261 217 221 217 229 231 249 262 267 264 281 262 246 260 114 203 208 201 197 193 165 161 161
240 219 229 263 295 202 217 233 206 202 231 219 245 236 251 265 253 259 205 242 234 268 246 215 215 228 225 235 245 255 260 272 240 254 262 112 139 230 201 185 179 165 167 168
216 230 281 269 213 231 241 213 213 214 238 306 336 331 309 269 254 228 191 201 235 253 4 301 233 220 231 229 232 241 246 243 237 248 250 253 139 181 205 197 173 167 167 170
246 230 238 191 205 242 226 230 208 238 298 260 292 261 289 290 264 240 209 250 233 341 241 242 284 211 225 302 229 230 220 216 197 202 195 75 328 208 54 217 173 168 166 173
221 203 236 236 200 223 225 286 304 263 253 275 283 263 234 245 239 274 263 229 283 215 259 277 305 336 330 328 287 207 192 189 194 202 224 192 158 161 206 127 131 142 161 165
232 222 243 229 274 339 300 303 296 279 267 290 300 264 263 269 272 258 274 250 208 231 280 291 315 347 320 323 323 200 191 194 205 207 193 151 169 175 176 161 167 158 161 160
249 242 251 276 245 277 307 307 299 289 299 295 261 281 271 262 257 239 244 262 300 12 10 360 4 5 324 321 19 99 192 195 195 179 171 185 163 153 153 156 157 154 168 166
238 246 246 258 269 260 235 282 272 283 269 270 207 222 237 205 269 274 285 341 352 357 5 8 5 15 351 341 353 37 120 118 124 187 192 226 176 146 153 154 158 160 162 160
Wind_Speed_850mb
49 49 51 54 63 62 49 17 7 10 6 6 11 9 14 33 34 54 34 32 25 25 20 22 24 30 21 53 30 31 22 15 13 22 25 14 13 12 15 11 8 3 11 11
47 47 47 47 49 58 63 39 15 16 25 5 8 21 29 39 25 21 19 16 40 21 22 16 17 29 51 33 22 38 14 10 8 4 12 16 12 12 3 12 8 7 10 8
43 45 45 43 39 38 41 17 8 15 12 20 14 16 12 25 40 17 11 20 56 29 23 26 21 29 38 24 37 53 40 13 20 21 16 13 8 9 2 10 9 12 12 11
40 42 43 43 36 23 26 13 8 22 9 18 31 25 20 28 30 19 29 12 23 19 13 28 20 30 28 28 26 34 8 10 13 14 23 13 16 14 12 6 5 10 10 19
36 38 40 42 40 18 24 14 16 22 34 34 27 18 15 27 26 21 17 7 21 17 12 16 34 13 9 12 8 6 13 12 12 13 15 18 16 20 15 14 11 6 16 11
33 35 35 35 36 31 14 23 33 14 23 18 15 15 28 34 32 20 42 26 6 16 27 25 50 34 30 30 39 7 4 7 13 10 11 10 28 24 24 16 16 17 10 17
30 30 30 27 26 24 21 16 25 19 11 18 21 36 40 33 37 24 33 42 15 33 50 32 28 53 44 54 38 15 6 7 4 9 11 31 4 18 23 21 16 15 14 15
28 27 27 24 18 16 8 9 29 12 12 28 32 43 38 40 42 36 41 37 40 50 35 10 12 9 15 22 24 10 8 9 4 4 11 23 12 8 10 1 26 14 19 27
27 26 24 24 20 18 15 7 10 14 15 14 46 42 36 18 16 20 34 67 53 36 6 6 10 7 13 11 3 18 17 10 9 8 2 9 15 7 24 16 23 16 14 17
26 25 23 22 21 18 15 5 12 14 27 42 31 27 28 35 25 16 34 43 33 21 4 8 10 15 17 11 23 6 6 5 13 8 9 13 41 11 19 14 15 47 73 61
23 23 24 22 21 20 19 11 8 17 22 52 51 28 41 46 31 9 39 27 21 9 9 7 7 7 6 6 4 4 2 2 8 7 12 24 44 43 17 17 6 54 65 74
23 25 25 22 21 21 21 18 12 24 32 46 55 59 56 52 59 51 25 27 35 12 7 8 7 8 8 11 5 7 6 7 5 9 8 28 38 45 78 36 36 49 75 73
26 26 26 24 23 22 22 28 23 18 32 54 33 37 34 38 28 58 34 31 34 33 16 12 7 9 5 5 8 9 6 2 8 2 13 24 44 85 51 17 56 79 81 81
28 29 27 26 25 24 25 31 22 23 20 15 25 29 51 41 40 29 41 59 39 44 34 18 7 6 14 4 9 10 7 7 11 11 14 22 29 52 31 46 46 79 77 74
31 33 31 29 27 25 28 35 36 25 29 14 45 81 49 28 37 45 47 48 50 39 25 13 13 20 15 18 13 10 19 14 8 8 7 17 14 13 13 36 16 67 73 69
35 34 30 28 26 25 23 12 8 11 44 15 7 29 75 28 36 49 41 54 58 55 39 22 32 50 33 9 8 23 18 7 32 17 22 27 15 13 10 43 6 64 66 74
27 27 26 25 23 22 23 12 4 2 7 9 12 13 19 41 32 34 50 54 46 46 51 46 43 47 36 13 26 43 65 39 30 24 16 12 16 15 20 27 4 71 70 66
26 24 23 22 24 33 47 43 36 25 22 14 7 10 32 26 29 19 16 27 50 56 45 32 33 31 32 14 21 39 71 63 40 42 18 36 25 22 27 29 18 57 64 64
21 21 19 26 29 20 37 14 27 25 32 10 11 11 15 13 10 12 17 9 6 27 20 29 20 18 15 15 34 49 63 39 35 35 16 10 24 63 69 55 41 37 71 67
16 15 9 9 13 17 14 7 9 17 17 20 15 30 24 40 46 8 7 8 5 8 18 33 26 23 47 65 68 49 43 43 46 31 30 13 39 45 56 80 46 70 66 65
14 9 10 16 14 13 10 9 11 14 10 18 22 42 31 41 21 14 13 5 6 7 7 16 19 22 34 74 70 76 56 45 41 49 40 22 25 27 68 65 53 71 67 67
11 10 11 10 8 11 9 7 8 11 9 7 9 18 32 32 36 20 15 10 9 10 9 10 19 18 57 63 73 75 64 45 46 52 44 13 32 56 70 69 68 76 69 63
11 8 6 6 10 9 9 10 7 4 10 11 12 5 13 11 10 13 7 9 8 10 3 7 7 34 40 17 65 67 44 45 33 22 25 13 6 39 21 103 87 83 78 69
8 9 9 8 9 9 9 10 9 15 16 28 19 11 8 9 6 7 9 9 5 5 4 5 6 34 40 46 28 58 59 49 46 48 45 45 32 20 27 36 50 61 78 67
9 11 7 11 11 19 16 28 25 26 26 23 13 12 6 6 6 7 8 8 9 7 5 1 30 35 36 57 18 58 59 62 52 38 22 16 36 55 63 43 29 37 45 57
8 11 12 26 13 14 16 29 33 33 27 5 6 3 3 7 6 8 10 7 3 9 14 26 17 31 27 42 30 13 45 44 32 18 22 20 53 57 62 75 80 67 62 60
9 15 29 33 36 24 19 50 39 22 16 2 6 5 7 6 7 8 5 7 14 38 40 35 29 32 28 25 28 12 28 25 16 15 30 12 41 53 80 82 70 71 66 55
Wind_Direction_850mb
349 353 354 355 349 350 1 11 297 181 329 253 243 232 257 304 319 329 316 297 287 298 292 295 301 309 293 304 305 258 199 173 217 243 276 272 197 222 162 124 251 59 130 240
346 350 353 356 356 349 349 336 282 329 208 277 331 357 345 334 352 323 1 320 319 304 295 308 284 289 292 303 322 327 210 212 209 270 300 303 253 249 158 112 83 164 129 252
345 348 352 353 357 345 343 340 312 352 344 7 19 358 313 333 325 315 18 334 302 356 321 294 291 287 287 338 323 339 290 182 177 206 197 217 233 295 18 141 126 180 191 173
342 346 350 352 355 359 357 8 358 11 331 335 323 306 286 297 302 332 10 340 26 28 312 327 348 357 332 350 329 332 57 247 181 188 193 214 212 258 262 121 233 126 275 192
338 343 348 349 354 8 46 32 356 339 302 308 315 298 316 330 356 10 338 57 346 356 354 322 310 338 316 303 312 2 4 312 295 210 205 221 224 188 235 255 130 189 101 36
334 338 344 350 356 8 42 19 351 313 291 296 294 334 338 328 347 7 353 336 277 306 295 205 280 255 265 261 280 270 45 51 13 296 236 250 259 197 202 226 225 164 177 183
330 333 339 351 355 5 357 12 349 311 296 321 326 333 340 333 328 315 311 303 327 330 328 265 273 265 276 294 277 181 242 105 101 287 297 233 163 182 197 216 236 188 110 149
326 329 333 341 343 336 330 17 341 326 307 315 314 344 325 328 338 334 323 349 352 333 322 304 292 272 268 241 241 187 135 102 56 76 312 294 264 183 149 12 277 197 167 140
317 321 326 329 333 329 316 288 348 321 301 219 347 332 323 336 328 316 325 328 340 331 286 262 235 261 304 276 9 32 42 73 126 112 255 262 285 175 150 214 213 193 266 145
310 312 315 317 321 326 324 35 353 299 290 280 306 316 308 303 312 300 299 349 320 330 259 272 255 264 298 284 299 208 95 314 210 150 182 267 271 206 147 143 234 157 173 160
307 307 309 310 310 313 315 265 328 302 293 291 285 281 308 307 307 292 316 338 6 311 354 339 321 320 290 322 88 135 59 156 269 162 177 239 6 331 181 189 128 126 136 142
308 309 309 306 300 299 304 297 273 292 283 271 283 282 278 274 274 263 268 281 316 292 8 4 330 324 301 329 299 200 201 170 231 243 292 324 312 298 306 199 138 133 139 145
292 291 293 299 299 290 282 290 303 321 297 305 277 283 305 299 319 264 232 253 255 274 1 299 267 266 357 322 289 24 293 190 252 123 212 213 277 307 334 330 176 160 162 151
289 296 294 293 293 293 285 279 279 273 283 285 286 304 291 272 275 252 256 250 264 269 282 268 282 299 317 267 282 282 181 189 247 256 295 312 286 281 354 338 146 140 144 146
283 291 291 289 281 284 287 287 277 248 246 288 297 300 304 279 261 256 246 243 255 249 250 241 250 265 277 272 263 254 201 202 217 256 236 221 264 289 280 317 225 143 138 141
283 285 285 287 281 275 298 321 99 277 242 264 289 284 296 299 284 252 264 240 246 238 234 248 248 253 265 263 241 257 280 167 277 256 253 236 257 252 236 299 245 148 149 154
287 285 276 278 274 260 233 240 234 196 257 272 281 279 284 310 309 255 252 247 240 228 233 237 249 268 276 269 261 265 276 278 281 209 193 193 244 279 226 301 131 146 152 151
280 283 278 273 269 267 264 263 260 253 265 251 262 267 277 289 305 281 317 280 235 227 234 234 224 241 249 247 239 251 267 278 256 234 227 224 266 180 186 182 139 144 143 151
275 275 270 279 267 255 272 275 246 236 228 270 252 257 279 304 28 348 336 310 297 255 233 223 221 222 225 220 239 257 261 267 273 283 222 240 221 203 188 171 184 174 153 154
276 267 247 253 243 262 254 245 202 205 215 230 256 255 266 282 299 308 0 307 255 261 217 221 217 229 231 249 262 267 264 281 262 246 260 114 203 208 201 197 193 165 161 161
240 219 229 263 295 202 217 233 206 202 231 219 245 236 251 265 253 259 205 242 234 268 246 215 215 228 225 235 245 255 260 272 240 254 262 112 139 230 201 185 179 165 167 168
216 230 281 269 213 231 241 213 213 214 238 306 336 331 309 269 254 228 191 201 235 253 4 301 233 220 231 229 232 241 246 243 237 248 250 253 139 181 205 197 173 167 167 170
246 230 238 191 205 242 226 230 208 238 298 260 292 261 289 290 264 240 209 250 233 341 241 242 284 211 225 302 229 230 220 216 197 202 195 75 328 208 54 217 173 168 166 173
221 203 236 236 200 223 225 286 304 263 253 275 283 263 234 245 239 274 263 229 283 215 259 277 305 336 330 328 287 207 192 189 194 202 224 192 158 161 206 127 131 142 161 165
232 222 243 229 274 339 300 303 296 279 267 290 300 264 263 269 272 258 274 250 208 231 280 291 315 347 320 323 323 200 191 194 205 207 193 151 169 175 176 161 167 158 161 160
249 242 251 276 245 277 307 307 299 289 299 295 261 281 271 262 257 239 244 262 300 12 10 360 4 5 324 321 19 99 192 195 195 179 171 185 163 153 153 156 157 154 168 166
238 246 246 258 269 260 235 282 272 283 269 270 207 222 237 205 269 274 285 341 352 357 5 8 5 15 351 341 353 37 120 118 124 187 192 226 176 146 153 154 158 160 162 160